sat.trackr.live / text

‹ back to catalog

STARLINK-3112

NORAD 49421 · 2021-104P

PAYLOAD ACTIVE UNKNOWN

§ Identity

Operator
Country
US
Launch date
2021-11-13
Launch site
AFETR
Launch vehicle
Mass (kg)
RCS (m²)

Purposes: comms

External: N2YO · Heavens-Above · Gunter

§ Orbital elements

Epoch: 2026-09-20T01:27:58.289184Z

Period
94.01 min
Inclination
53.1599°
Eccentricity
0.0001120
Mean motion
15.31705379 rev/d
Perigee alt
470.0 km
Apogee alt
471.5 km
Semi-major
6,848.9 km
B*
4.3124e-5
RAAN
62.8606°
Arg perigee
80.7916°
Mean anomaly
279.3212°
Rev number
26,815

§ Raw data

STARLINK-31121 49421U 21104P   26263.06109131  .00000974  00000+0  43124-4 0  99952 49421  53.1599  62.8606 0001120  80.7916 279.3212 15.31705379268156

JSON: /api/v1/satellites/49421 · /tle

For live sub-satellite position, see the globe view (requires WebGL).

§ Visibility from observer

Set your observer location to see the next 7 days of passes ≥ 10°. The values pass through the URL so the page stays shareable.

No JS? Fill the form by hand. The geolocation button needs JavaScript.